Date String (YYYY-MM-DD hh:mm:ss) UTC,Instrument flags,Ambient pressure (hPa),Sample flow (lpm),Bypass flow (lpm),Sample temperature (°C),Ambient temperature (°C),ASC tube jacket temperature (°C),LED temperature (°C),Box temperature (°C),Sample RH (%),Span deviation,Mass concentration (μg/m³),Mass concentration (μg/m³),Mass concentration (μg/m³)
DateTimeUTC,F1_M11,P_M11,Q1_M11,Q2_M11,T1_M11,T2_M11,T3_M11,T4_M11,T5_M11,U1_M11,ZSPAN_M11,X0_M11,X2_M11,X1_M11
2022-02-20 19:00:00,,0818.5,5.00,0.00,24.1,23.5,00.0,32.8,26.1,05.6,0000.0,0000.97,0000.64,0000.44
2022-02-20 19:01:00,,0818.4,4.99,0.00,24.1,23.6,00.0,32.8,26.1,05.5,0000.0,0000.95,0000.62,0000.44
2022-02-20 19:02:00,,0818.4,5.01,0.00,24.1,23.6,00.0,32.8,26.1,05.3,0000.0,0000.93,0000.60,0000.44
2022-02-20 19:03:00,,0818.4,4.99,0.00,24.2,23.6,00.0,32.9,26.1,05.2,0000.0,0000.94,0000.61,0000.45
2022-02-20 19:04:00,,0818.4,5.02,0.00,24.2,23.6,00.0,32.9,26.1,05.1,0000.0,0000.99,0000.63,0000.46
2022-02-20 19:05:00,,0818.4,5.00,0.00,24.2,23.7,00.0,32.9,26.2,05.2,0000.0,0001.11,0000.63,0000.46
2022-02-20 19:06:00,,0818.4,5.00,0.00,24.2,23.7,00.0,32.9,26.2,05.4,0000.0,0001.94,0000.62,0000.46
2022-02-20 19:07:00,,0818.4,5.00,0.00,24.3,23.7,00.0,33.0,26.2,05.9,0000.0,0001.97,0000.62,0000.45
2022-02-20 19:08:00,,0818.4,4.99,0.00,24.3,23.7,00.0,33.0,26.2,06.0,0000.0,0002.03,0000.62,0000.44
2022-02-20 19:09:00,,0818.4,5.02,0.00,24.3,23.7,00.0,33.0,26.2,05.5,0000.0,0002.04,0000.63,0000.44
2022-02-20 19:10:00,,0818.3,4.99,0.00,24.3,23.8,00.0,33.0,26.3,05.8,0000.0,0002.05,0000.64,0000.45
2022-02-20 19:11:00,,0818.2,5.00,0.00,24.4,23.8,00.0,33.1,26.3,06.2,0000.0,0002.21,0000.62,0000.44
2022-02-20 19:12:00,,0818.1,5.00,0.00,24.4,23.9,00.0,33.1,26.3,05.7,0000.0,0002.25,0000.63,0000.44
2022-02-20 19:13:00,,0818.1,4.99,0.00,24.4,23.9,00.0,33.1,26.4,05.7,0000.0,0002.27,0000.64,0000.45
2022-02-20 19:14:00,,0818.1,5.01,0.00,24.5,23.9,00.0,33.2,26.4,05.8,0000.0,0002.32,0000.65,0000.44
2022-02-20 19:15:00,,0818.2,4.99,0.00,24.5,23.9,00.0,33.2,26.5,05.3,0000.0,0002.92,0000.64,0000.42
2022-02-20 19:16:00,,0818.2,5.01,0.00,24.5,23.9,00.0,33.2,26.4,05.3,0000.0,0003.15,0000.62,0000.42
2022-02-20 19:17:00,,0818.2,4.99,0.00,24.5,24.0,00.0,33.3,26.5,05.4,0000.0,0002.37,0000.61,0000.41
2022-02-20 19:18:00,,0818.2,5.01,0.00,24.5,24.0,00.0,33.3,26.4,05.5,0000.0,0002.34,0000.60,0000.42
2022-02-20 19:19:00,,0818.2,5.00,0.00,24.6,24.0,00.0,33.3,26.5,05.5,0000.0,0002.33,0000.61,0000.42
2022-02-20 19:20:00,,0818.1,4.99,0.00,24.6,24.0,00.0,33.3,26.5,05.5,0000.0,0002.30,0000.59,0000.43
2022-02-20 19:21:00,,0818.0,5.02,0.00,24.6,24.0,00.0,33.4,26.6,05.5,0000.0,0002.25,0000.60,0000.44
2022-02-20 19:22:00,,0818.0,5.00,0.00,24.7,24.1,00.0,33.4,26.6,05.5,0000.0,0002.07,0000.60,0000.44
2022-02-20 19:23:00,,0818.0,5.00,0.00,24.7,24.1,00.0,33.4,26.6,05.2,0000.0,0002.01,0000.58,0000.44
2022-02-20 19:24:00,,0817.9,5.01,0.00,24.7,24.1,00.0,33.4,26.7,05.3,0000.0,0001.95,0000.57,0000.43
2022-02-20 19:25:00,,0817.8,5.00,0.00,24.7,24.1,00.0,33.5,26.7,05.3,0000.0,0001.99,0000.58,0000.44
2022-02-20 19:26:00,,0817.9,5.01,0.00,24.8,24.2,00.0,33.5,26.7,05.1,0000.0,0001.32,0000.57,0000.45
2022-02-20 19:27:00,,0817.9,4.99,0.00,24.8,24.2,00.0,33.5,26.7,05.4,0000.0,0000.86,0000.58,0000.45
2022-02-20 19:28:00,,0817.8,5.00,0.00,24.8,24.2,00.0,33.5,26.8,05.3,0000.0,0000.92,0000.61,0000.46
2022-02-20 19:29:00,,0817.8,5.02,0.00,24.9,24.3,00.0,33.6,26.8,05.3,0000.0,0001.43,0000.65,0000.46
2022-02-20 19:30:00,,0817.8,4.99,0.00,24.9,24.3,00.0,33.6,26.8,05.3,0000.0,0001.83,0000.63,0000.46
2022-02-20 19:31:00,,0817.8,4.99,0.00,24.9,24.3,00.0,33.6,26.9,05.1,0000.0,0001.82,0000.62,0000.45
2022-02-20 19:32:00,,0817.8,5.01,0.00,25.0,24.4,00.0,33.6,26.9,05.0,0000.0,0001.80,0000.60,0000.45
2022-02-20 19:33:00,,0817.8,4.99,0.00,25.0,24.4,00.0,33.7,26.9,05.0,0000.0,0001.81,0000.59,0000.44
2022-02-20 19:34:00,,0817.8,5.00,0.00,25.0,24.4,00.0,33.7,26.9,05.0,0000.0,0002.15,0000.63,0000.44
2022-02-20 19:35:00,,0817.7,4.98,0.00,25.0,24.4,00.0,33.7,27.0,05.0,0000.0,0002.27,0000.66,0000.44
2022-02-20 19:36:00,,0817.6,5.01,0.00,25.1,24.5,00.0,33.8,27.0,05.1,0000.0,0002.23,0000.65,0000.43
2022-02-20 19:37:00,,0817.7,4.99,0.00,25.1,24.5,00.0,33.8,27.0,05.6,0000.0,0002.25,0000.66,0000.43
2022-02-20 19:38:00,,0817.8,4.99,0.00,25.1,24.5,00.0,33.8,27.1,05.4,0000.0,0002.28,0000.67,0000.43
2022-02-20 19:39:00,,0817.7,5.01,0.00,25.1,24.6,00.0,33.8,27.1,05.1,0000.0,0002.25,0000.66,0000.43
2022-02-20 19:40:00,,0817.8,4.99,0.00,25.2,24.6,00.0,33.9,27.1,05.4,0000.0,0001.92,0000.60,0000.42
2022-02-20 19:41:00,,0817.7,5.00,0.00,25.2,24.6,00.0,33.9,27.1,04.5,0000.0,0002.05,0000.61,0000.42
2022-02-20 19:42:00,,0817.7,5.01,0.00,25.2,24.6,00.0,33.9,27.2,04.1,0000.0,0002.34,0000.63,0000.41
2022-02-20 19:43:00,,0817.7,4.99,0.00,25.2,24.7,00.0,34.0,27.2,04.3,0000.0,0002.55,0000.62,0000.41
2022-02-20 19:44:00,,0817.7,5.01,0.00,25.3,24.7,00.0,34.0,27.2,04.5,0000.0,0003.22,0000.62,0000.40
2022-02-20 19:45:00,,0817.6,4.99,0.00,25.3,24.7,00.0,34.0,27.3,04.8,0000.0,0003.04,0000.59,0000.40
2022-02-20 19:46:00,,0817.7,5.00,0.00,25.3,24.7,00.0,34.0,27.3,04.8,0000.0,0002.86,0000.55,0000.39
2022-02-20 19:47:00,,0817.5,5.00,0.00,25.3,24.8,00.0,34.1,27.3,04.8,0000.0,0002.81,0000.53,0000.39
2022-02-20 19:48:00,,0817.4,4.98,0.00,25.4,24.8,00.0,34.1,27.3,05.0,0000.0,0002.79,0000.52,0000.38
2022-02-20 19:49:00,,0817.5,5.00,0.00,25.4,24.8,00.0,34.1,27.3,05.2,0000.0,0002.78,0000.52,0000.38
2022-02-20 19:50:00,,0817.5,4.99,0.00,25.4,24.8,00.0,34.2,27.3,04.4,0000.0,0002.83,0000.53,0000.38
2022-02-20 19:51:00,,0817.5,5.00,0.00,25.4,24.8,00.0,34.2,27.4,04.3,0000.0,0003.46,0000.54,0000.38
2022-02-20 19:52:00,,0817.6,5.00,0.00,25.4,24.8,00.0,34.2,27.4,04.7,0000.0,0003.51,0000.52,0000.38
2022-02-20 19:53:00,,0817.5,4.99,0.00,25.5,24.8,00.0,34.2,27.4,04.3,0000.0,0003.16,0000.49,0000.38
2022-02-20 19:54:00,,0817.4,5.01,0.00,25.5,24.9,00.0,34.2,27.4,04.5,0000.0,0003.16,0000.49,0000.38
2022-02-20 19:55:00,,0817.4,4.99,0.00,25.5,24.9,00.0,34.3,27.4,05.1,0000.0,0002.36,0000.50,0000.38
2022-02-20 19:56:00,,0817.4,5.01,0.00,25.5,24.9,00.0,34.3,27.5,05.2,0000.0,0003.08,0000.51,0000.38
2022-02-20 19:57:00,,0817.4,5.00,0.00,25.5,24.9,00.0,34.3,27.5,05.0,0000.0,0003.14,0000.52,0000.38
2022-02-20 19:58:00,,0817.4,4.99,0.00,25.6,25.0,00.0,34.3,27.5,04.3,0000.0,0003.35,0000.54,0000.38
2022-02-20 19:59:00,,0817.3,5.00,0.00,25.6,25.0,00.0,34.4,27.5,04.3,0000.0,0003.85,0000.56,0000.38
